RYR290W LBSF-LIBD

Flight info

Callsign RYR290W
Flight time 1h 0m
Altitude 38000
Route NAPET3T/27 NAPET T214 SIN DCT MAVAR DCT ODRAS DCT TRN DCT RODON DCT BALEM DCT CRAYE DCT ENOXA
Aircraft B738/M-SDE2E3FGHIRWXY/LB1

Departure

Time 2026-05-06 18:23
Airport Sofia Airport (LBSF)

Arrival

Time 2026-05-06 19:23
Airport Bari Karol Wojtyła International Airport (LIBD)
Time Latitude Longitude Altitude Speed Heading
2026-05-06 17:53 42.69026 23.41094 1752 ft 0 kts 163°
2026-05-06 18:14 42.69025 23.41095 1752 ft 0 kts 163°
2026-05-06 18:15 42.69023 23.41095 1752 ft 1 kts 163°
2026-05-06 18:16 42.69006 23.41102 1748 ft 4 kts 163°
2026-05-06 18:16 42.68965 23.41098 1749 ft 9 kts 219°
2026-05-06 18:16 42.68935 23.41000 1747 ft 14 kts 252°
2026-05-06 18:16 42.68911 23.40853 1749 ft 17 kts 283°
2026-05-06 18:17 42.68981 23.40770 1752 ft 15 kts 12°
2026-05-06 18:17 42.69065 23.40840 1752 ft 15 kts 69°
2026-05-06 18:17 42.69098 23.40974 1748 ft 16 kts 72°
2026-05-06 18:17 42.69141 23.41119 1747 ft 18 kts 40°
2026-05-06 18:18 42.69268 23.41165 1748 ft 21 kts 12°
2026-05-06 18:18 42.69413 23.41204 1743 ft 20 kts 11°
2026-05-06 18:18 42.69484 23.41302 1749 ft 15 kts 96°
2026-05-06 18:18 42.69476 23.41452 1752 ft 17 kts 95°
2026-05-06 18:19 42.69465 23.41625 1752 ft 20 kts 95°
2026-05-06 18:19 42.69453 23.41823 1752 ft 22 kts 95°
2026-05-06 18:19 42.69440 23.42043 1752 ft 24 kts 94°
2026-05-06 18:19 42.69427 23.42280 1752 ft 26 kts 94°
2026-05-06 18:20 42.69412 23.42530 1748 ft 27 kts 94°
2026-05-06 18:20 42.69396 23.42794 1752 ft 29 kts 95°
2026-05-06 18:20 42.69380 23.43067 1747 ft 30 kts 94°
2026-05-06 18:20 42.69363 23.43345 1748 ft 29 kts 95°
2026-05-06 18:21 42.69347 23.43611 1748 ft 27 kts 95°
2026-05-06 18:21 42.69332 23.43845 1749 ft 19 kts 95°
2026-05-06 18:21 42.69388 23.43948 1752 ft 11 kts
2026-05-06 18:21 42.69430 23.43953 1751 ft 6 kts
2026-05-06 18:22 42.69487 23.43958 1753 ft 10 kts 358°
2026-05-06 18:22 42.69525 23.43839 1749 ft 30 kts 274°
2026-05-06 18:22 42.69562 23.43202 1754 ft 104 kts 274°
2026-05-06 18:22 42.69637 23.41926 1757 ft 164 kts 275°
2026-05-06 18:23 42.69740 23.40325 2346 ft 170 kts 272°
2026-05-06 18:23 42.69886 23.38713 3144 ft 175 kts 288°
2026-05-06 18:23 42.70585 23.37339 3935 ft 176 kts 310°
2026-05-06 18:23 42.71390 23.36060 4726 ft 178 kts 306°
2026-05-06 18:24 42.72178 23.34718 5396 ft 192 kts 305°
2026-05-06 18:24 42.73062 23.33174 5654 ft 220 kts 305°
2026-05-06 18:24 42.74050 23.31431 5889 ft 244 kts 305°
2026-05-06 18:24 42.75119 23.29538 6223 ft 265 kts 305°
2026-05-06 18:25 42.76236 23.27470 6754 ft 273 kts 297°
2026-05-06 18:25 42.76753 23.25013 6969 ft 272 kts 272°
2026-05-06 18:25 42.76787 23.22437 6999 ft 274 kts 269°
2026-05-06 18:25 42.76801 23.19848 6994 ft 273 kts 269°
2026-05-06 18:26 42.76824 23.17271 7001 ft 272 kts 269°
2026-05-06 18:26 42.76853 23.14693 6999 ft 272 kts 269°
2026-05-06 18:26 42.76534 23.12226 7009 ft 272 kts 244°
2026-05-06 18:26 42.75362 23.10160 7541 ft 275 kts 219°
2026-05-06 18:27 42.73683 23.08924 8451 ft 277 kts 196°
2026-05-06 18:27 42.71781 23.08422 9355 ft 281 kts 189°
2026-05-06 18:27 42.69828 23.08061 10183 ft 286 kts 188°
2026-05-06 18:27 42.67790 23.07712 10581 ft 307 kts 188°
2026-05-06 18:28 42.65586 23.07332 10871 ft 329 kts 188°
2026-05-06 18:28 42.63282 23.06925 11542 ft 337 kts 188°
2026-05-06 18:28 42.60949 23.06506 12398 ft 339 kts 188°
2026-05-06 18:28 42.58590 23.06075 13151 ft 345 kts 189°
2026-05-06 18:29 42.56192 23.05633 13895 ft 351 kts 189°
2026-05-06 18:29 42.53758 23.05181 14592 ft 355 kts 189°
2026-05-06 18:29 42.51295 23.04723 15271 ft 360 kts 189°
2026-05-06 18:29 42.48795 23.04258 15959 ft 365 kts 189°
2026-05-06 18:30 42.46263 23.03787 16636 ft 370 kts 189°
2026-05-06 18:30 42.43702 23.03311 17316 ft 374 kts 189°
2026-05-06 18:30 42.41107 23.02829 17984 ft 379 kts 190°
2026-05-06 18:30 42.38519 23.02348 18595 ft 383 kts 190°
2026-05-06 18:31 42.35818 23.01848 19190 ft 387 kts 190°
2026-05-06 18:31 42.33174 23.01358 19769 ft 391 kts 190°
2026-05-06 18:31 42.30489 23.00535 20313 ft 391 kts 206°
2026-05-06 18:31 42.28228 22.98647 20893 ft 387 kts 224°
2026-05-06 18:32 42.26482 22.95926 21502 ft 383 kts 239°
2026-05-06 18:32 42.25033 22.92898 22087 ft 385 kts 241°
2026-05-06 18:32 42.23611 22.89822 22648 ft 389 kts 242°
2026-05-06 18:32 42.22173 22.86711 23201 ft 392 kts 241°
2026-05-06 18:33 42.20712 22.83585 23706 ft 396 kts 241°
2026-05-06 18:33 42.19226 22.80444 24184 ft 398 kts 241°
2026-05-06 18:33 42.17730 22.77306 24686 ft 399 kts 241°
2026-05-06 18:33 42.16219 22.74153 25153 ft 401 kts 241°
2026-05-06 18:34 42.14698 22.70986 25614 ft 404 kts 241°
2026-05-06 18:34 42.13166 22.67796 26038 ft 407 kts 241°
2026-05-06 18:34 42.11625 22.64592 26502 ft 409 kts 241°
2026-05-06 18:34 42.10076 22.61377 26933 ft 411 kts 240°
2026-05-06 18:35 42.08516 22.58139 27334 ft 414 kts 240°
2026-05-06 18:35 42.06945 22.54881 27731 ft 416 kts 240°
2026-05-06 18:35 42.05365 22.51606 28159 ft 418 kts 240°
2026-05-06 18:35 42.03778 22.48319 28571 ft 420 kts 240°
2026-05-06 18:36 42.02186 22.45024 28967 ft 421 kts 240°
2026-05-06 18:36 42.00583 22.41711 29302 ft 424 kts 240°
2026-05-06 18:36 41.99066 22.38396 29615 ft 424 kts 246°
2026-05-06 18:36 41.97885 22.34695 30003 ft 422 kts 254°
2026-05-06 18:37 41.97118 22.30894 30278 ft 421 kts 263°
2026-05-06 18:37 41.96842 22.28315 30474 ft 421 kts 265°
2026-05-06 18:37 41.96363 22.23076 30868 ft 424 kts 265°
2026-05-06 18:37 41.96018 22.19134 31173 ft 424 kts 265°
2026-05-06 18:38 41.95670 22.15209 31603 ft 422 kts 265°
2026-05-06 18:38 41.95317 22.11308 32082 ft 419 kts 265°
2026-05-06 18:38 41.94958 22.07435 32468 ft 418 kts 265°
2026-05-06 18:38 41.94594 22.03565 32815 ft 418 kts 265°
2026-05-06 18:39 41.94226 21.99701 33186 ft 417 kts 265°
2026-05-06 18:39 41.93855 21.95849 33614 ft 414 kts 265°
2026-05-06 18:39 41.93485 21.92020 34010 ft 413 kts 265°
2026-05-06 18:40 41.92743 21.84385 34570 ft 413 kts 265°
2026-05-06 18:40 41.92369 21.80565 34873 ft 412 kts 265°
2026-05-06 18:40 41.91996 21.76760 35154 ft 411 kts 265°
2026-05-06 18:40 41.91621 21.72954 35446 ft 411 kts 264°
2026-05-06 18:41 41.91246 21.69156 35718 ft 410 kts 264°
2026-05-06 18:41 41.90871 21.65362 35997 ft 410 kts 264°
2026-05-06 18:41 41.90621 21.62852 36181 ft 409 kts 264°
2026-05-06 18:41 41.90244 21.59067 36444 ft 409 kts 264°
2026-05-06 18:42 41.89866 21.55288 36691 ft 409 kts 264°
2026-05-06 18:42 41.89364 21.50279 37028 ft 408 kts 264°
2026-05-06 18:42 41.89108 21.47735 37190 ft 408 kts 264°
2026-05-06 18:42 41.88602 21.42727 37485 ft 408 kts 264°
2026-05-06 18:43 41.88343 21.40180 37647 ft 408 kts 264°
2026-05-06 18:43 41.87960 21.36410 37913 ft 407 kts 264°
2026-05-06 18:43 41.87575 21.32639 37984 ft 410 kts 264°
2026-05-06 18:44 41.86798 21.25049 37998 ft 409 kts 264°
2026-05-06 18:44 41.86022 21.17541 38001 ft 404 kts 263°
2026-05-06 18:45 41.85248 21.10094 38020 ft 401 kts 263°
2026-05-06 18:45 41.84475 21.02702 38038 ft 399 kts 263°
2026-05-06 18:46 41.83701 20.95337 38035 ft 399 kts 263°
2026-05-06 18:46 41.82923 20.87986 38049 ft 398 kts 263°
2026-05-06 18:47 41.82141 20.80650 38063 ft 398 kts 263°
2026-05-06 18:47 41.81353 20.73297 38065 ft 398 kts 263°
2026-05-06 18:48 41.80561 20.65958 38059 ft 398 kts 264°
2026-05-06 18:48 41.79764 20.58617 38063 ft 398 kts 264°
2026-05-06 18:49 41.78965 20.51289 38073 ft 398 kts 264°
2026-05-06 18:49 41.78164 20.44000 38075 ft 398 kts 264°
2026-05-06 18:50 41.77352 20.36650 38072 ft 399 kts 264°
2026-05-06 18:50 41.76535 20.29306 38067 ft 399 kts 264°
2026-05-06 18:51 41.75714 20.21970 38091 ft 397 kts 264°
2026-05-06 18:51 41.74889 20.14633 38077 ft 399 kts 264°
2026-05-06 18:52 41.74058 20.07294 38105 ft 398 kts 264°
2026-05-06 18:52 41.73223 19.99955 38084 ft 399 kts 264°
2026-05-06 18:53 41.72385 19.92637 38088 ft 397 kts 264°
2026-05-06 18:53 41.71543 19.85331 38079 ft 396 kts 264°
2026-05-06 18:54 41.70701 19.78063 38091 ft 395 kts 264°
2026-05-06 18:54 41.69857 19.70815 38090 ft 394 kts 264°
2026-05-06 18:55 41.69009 19.63573 38084 ft 394 kts 264°
2026-05-06 18:55 41.68157 19.56341 38086 ft 394 kts 264°
2026-05-06 18:56 41.67300 19.49107 38080 ft 394 kts 264°
2026-05-06 18:56 41.66438 19.41865 38082 ft 396 kts 264°
2026-05-06 18:57 41.65564 19.34561 38077 ft 399 kts 263°
2026-05-06 18:57 41.64676 19.27192 37771 ft 404 kts 263°
2026-05-06 18:57 41.64232 19.23526 37491 ft 397 kts 263°
2026-05-06 18:58 41.63792 19.19909 37134 ft 390 kts 263°
2026-05-06 18:58 41.63360 19.16372 36867 ft 382 kts 263°
2026-05-06 18:58 41.62935 19.12890 36615 ft 380 kts 263°
2026-05-06 18:58 41.62507 19.09381 36373 ft 383 kts 263°
2026-05-06 18:59 41.62057 19.05907 36089 ft 377 kts 261°
2026-05-06 18:59 41.61472 19.02488 35375 ft 378 kts 258°
2026-05-06 18:59 41.60809 18.99079 34493 ft 380 kts 257°
2026-05-06 18:59 41.60115 18.95642 33424 ft 386 kts 257°
2026-05-06 19:00 41.59414 18.92169 32482 ft 387 kts 257°
2026-05-06 19:00 41.58721 18.88710 31721 ft 384 kts 257°
2026-05-06 19:00 41.58040 18.85273 31050 ft 380 kts 258°
2026-05-06 19:00 41.57372 18.81877 30350 ft 377 kts 258°
2026-05-06 19:01 41.56710 18.78491 29570 ft 375 kts 258°
2026-05-06 19:01 41.56058 18.75143 28827 ft 371 kts 257°
2026-05-06 19:01 41.55413 18.71836 28136 ft 366 kts 257°
2026-05-06 19:01 41.54776 18.68567 27467 ft 361 kts 257°
2026-05-06 19:02 41.54146 18.65340 26775 ft 358 kts 257°
2026-05-06 19:02 41.53522 18.62145 26102 ft 355 kts 256°
2026-05-06 19:02 41.52901 18.58971 25444 ft 351 kts 256°
2026-05-06 19:02 41.52286 18.55832 24813 ft 348 kts 256°
2026-05-06 19:03 41.51675 18.52721 24194 ft 345 kts 256°
2026-05-06 19:03 41.51068 18.49637 23599 ft 342 kts 255°
2026-05-06 19:03 41.50466 18.46580 22892 ft 339 kts 255°
2026-05-06 19:03 41.49868 18.43552 22240 ft 336 kts 255°
2026-05-06 19:04 41.49276 18.40557 21606 ft 332 kts 255°
2026-05-06 19:04 41.48690 18.37597 20973 ft 329 kts 255°
2026-05-06 19:04 41.48108 18.34657 20355 ft 326 kts 255°
2026-05-06 19:04 41.47530 18.31747 19760 ft 323 kts 255°
2026-05-06 19:05 41.46954 18.28850 19076 ft 328 kts 255°
2026-05-06 19:05 41.46365 18.25889 18523 ft 332 kts 255°
2026-05-06 19:05 41.45772 18.22919 18049 ft 331 kts 255°
2026-05-06 19:05 41.45192 18.20011 17653 ft 328 kts 255°
2026-05-06 19:06 41.44607 18.17086 17259 ft 325 kts 255°
2026-05-06 19:06 41.44021 18.14157 16871 ft 322 kts 255°
2026-05-06 19:06 41.43453 18.11323 16525 ft 320 kts 255°
2026-05-06 19:06 41.42880 18.08470 16160 ft 318 kts 255°
2026-05-06 19:07 41.42309 18.05633 15802 ft 316 kts 254°
2026-05-06 19:07 41.41742 18.02815 15442 ft 314 kts 254°
2026-05-06 19:07 41.41176 18.00012 15094 ft 312 kts 254°
2026-05-06 19:07 41.40614 17.97224 14742 ft 310 kts 254°
2026-05-06 19:08 41.40055 17.94460 14392 ft 308 kts 254°
2026-05-06 19:08 41.39499 17.91715 14039 ft 306 kts 253°
2026-05-06 19:08 41.38945 17.88983 13678 ft 305 kts 253°
2026-05-06 19:08 41.38393 17.86264 13296 ft 303 kts 253°
2026-05-06 19:09 41.37846 17.83572 12936 ft 301 kts 253°
2026-05-06 19:09 41.37301 17.80897 12589 ft 298 kts 253°
2026-05-06 19:09 41.36760 17.78240 12251 ft 296 kts 253°
2026-05-06 19:09 41.36223 17.75609 11907 ft 294 kts 253°
2026-05-06 19:10 41.35689 17.72996 11584 ft 292 kts 253°
2026-05-06 19:10 41.35157 17.70398 11255 ft 290 kts 253°
2026-05-06 19:10 41.34628 17.67813 10921 ft 289 kts 253°
2026-05-06 19:10 41.34101 17.65246 10607 ft 288 kts 253°
2026-05-06 19:11 41.33573 17.62675 10282 ft 287 kts 252°
2026-05-06 19:11 41.33050 17.60132 10105 ft 284 kts 252°
2026-05-06 19:11 41.32525 17.57582 9801 ft 289 kts 252°
2026-05-06 19:11 41.31990 17.54989 9474 ft 293 kts 252°
2026-05-06 19:12 41.31457 17.52410 9137 ft 293 kts 252°
2026-05-06 19:12 41.30920 17.49813 8812 ft 290 kts 252°
2026-05-06 19:12 41.30387 17.47234 8478 ft 288 kts 252°
2026-05-06 19:12 41.29856 17.44669 8164 ft 287 kts 252°
2026-05-06 19:13 41.29329 17.42128 7850 ft 281 kts 252°
2026-05-06 19:13 41.28818 17.39662 7532 ft 273 kts 252°
2026-05-06 19:13 41.28321 17.37266 7233 ft 264 kts 252°
2026-05-06 19:13 41.27838 17.34944 6942 ft 257 kts 252°
2026-05-06 19:14 41.27369 17.32691 6655 ft 250 kts 252°
2026-05-06 19:14 41.26911 17.30494 6384 ft 243 kts 252°
2026-05-06 19:14 41.26467 17.28367 6126 ft 234 kts 252°
2026-05-06 19:14 41.26044 17.26337 5864 ft 223 kts 251°
2026-05-06 19:15 41.25635 17.24380 5620 ft 216 kts 251°
2026-05-06 19:15 41.25239 17.22492 5375 ft 209 kts 251°
2026-05-06 19:15 41.24856 17.20666 5201 ft 200 kts 251°
2026-05-06 19:15 41.24483 17.18890 5100 ft 199 kts 251°
2026-05-06 19:16 41.24118 17.17152 5000 ft 197 kts 251°
2026-05-06 19:16 41.23752 17.15413 4913 ft 195 kts 251°
2026-05-06 19:16 41.23388 17.13683 4831 ft 194 kts 251°
2026-05-06 19:16 41.23025 17.11964 4752 ft 193 kts 251°
2026-05-06 19:17 41.22659 17.10229 4639 ft 197 kts 251°
2026-05-06 19:17 41.22283 17.08449 4424 ft 202 kts 251°
2026-05-06 19:17 41.21905 17.06653 4216 ft 200 kts 251°
2026-05-06 19:17 41.21535 17.04894 3992 ft 196 kts 251°
2026-05-06 19:18 41.21170 17.03168 3786 ft 192 kts 251°
2026-05-06 19:18 41.20813 17.01480 3576 ft 190 kts 251°
2026-05-06 19:18 41.20456 16.99798 3392 ft 189 kts 251°
2026-05-06 19:18 41.20089 16.98127 3181 ft 188 kts 249°
2026-05-06 19:19 41.19653 16.96513 3112 ft 184 kts 246°
2026-05-06 19:19 41.19190 16.94873 2869 ft 193 kts 246°
2026-05-06 19:19 41.18712 16.93193 2622 ft 195 kts 246°
2026-05-06 19:19 41.18237 16.91522 2371 ft 191 kts 246°
2026-05-06 19:20 41.17778 16.89906 2111 ft 188 kts 246°
2026-05-06 19:20 41.17318 16.88287 1855 ft 181 kts 245°
2026-05-06 19:20 41.16890 16.86777 1618 ft 173 kts 244°
2026-05-06 19:20 41.16480 16.85331 1397 ft 161 kts 244°
2026-05-06 19:21 41.16103 16.84002 1233 ft 147 kts 244°
2026-05-06 19:21 41.15746 16.82749 1004 ft 143 kts 245°
2026-05-06 19:21 41.15394 16.81505 805 ft 144 kts 245°
2026-05-06 19:21 41.15043 16.80260 661 ft 143 kts 246°
2026-05-06 19:22 41.14684 16.78981 446 ft 150 kts 246°
2026-05-06 19:22 41.14320 16.77699 236 ft 149 kts 246°
2026-05-06 19:22 41.13968 16.76466 138 ft 122 kts 249°
2026-05-06 19:22 41.13745 16.75690 165 ft 58 kts 249°
2026-05-06 19:23 41.13619 16.75238 172 ft 49 kts 249°
2026-05-06 19:23 41.13506 16.74841 178 ft 39 kts 250°
2026-05-06 19:23 41.13407 16.74750 183 ft 15 kts 140°
2026-05-06 19:23 41.13354 16.74866 183 ft 14 kts 113°
2026-05-06 19:24 41.13363 16.74996 180 ft 15 kts 71°
2026-05-06 19:24 41.13401 16.75128 176 ft 15 kts 70°
2026-05-06 19:24 41.13443 16.75275 171 ft 20 kts 69°
2026-05-06 19:24 41.13497 16.75471 169 ft 25 kts 69°
2026-05-06 19:25 41.13565 16.75706 165 ft 29 kts 68°
2026-05-06 19:25 41.13626 16.75921 159 ft 18 kts 70°
2026-05-06 19:25 41.13605 16.76060 154 ft 17 kts 139°
2026-05-06 19:25 41.13554 16.76161 153 ft 9 kts 84°
2026-05-06 19:26 41.13576 16.76177 152 ft 4 kts 349°
2026-05-06 19:26 41.13604 16.76165 152 ft 2 kts 340°
2026-05-06 19:26 41.13618 16.76171 152 ft 0 kts 23°